Regional Weather Roundup
Issued by NWS

Home | Current Version | Previous Version | Graphics & Text | Print | Product List | Glossary Off
Versions: 1 2 3 4 5 6 7 8 9 10 11 12 13 14 15 16 17 18 19 20 21 22 23 24 25 26 27 28 29 30 31 32 33 34 35 36 37 38 39 40 41 42 43 44 45 46 47 48 49 50

000
ASUS43 KTOP 050608
RWRKS

WEATHER ROUNDUP FOR KANSAS
NATIONAL WEATHER SERVICE GOODLAND KS
100 AM CDT TUE MAY 05 2015

NOTE:  "FAIR" INDICATES FEW OR NO CLOUDS BELOW 12,000 FEET WITH NO
SIGNIFICANT WEATHER AND/OR OBSTRUCTIONS TO VISIBILITY.

KSZ001>006-013>018-027>032-041>047-050700-
NORTHWEST KANSAS

CITY           SKY/WX    TMP DP  RH WIND       PRES   REMARKS
GOODLAND       CLOUDY    49  47  93 NE9       30.06F
6HR MIN TEMP:  49; 6HR MAX TEMP:  60;

HAYS           CLOUDY    59  54  82 SE10      30.06R
HILL CITY      CLOUDY    57  54  89 E8        30.07R FOG
6HR MIN TEMP:  57; 6HR MAX TEMP:  65;

RUSSELL        RAIN      60  60 100 SE6       30.05R FOG
6HR MIN TEMP:  60; 6HR MAX TEMP:  67; 6HR PCP:  0.64;

$$

KSZ061>065-074>080-084>089-050700-
SOUTHWEST KANSAS

CITY           SKY/WX    TMP DP  RH WIND       PRES   REMARKS
DODGE CITY     RAIN      59  56  89 NE16      30.04F FOG
6HR MIN TEMP:  59; 6HR MAX TEMP:  65; 6HR PCP:  0.47;

ELKHART          N/A     56  52  87 NE8         N/A
GARDEN CITY    CLOUDY    56  55  97 E12       30.01S
6HR MIN TEMP:  55; 6HR MAX TEMP:  68; 6HR PCP:  0.52;

GREAT BEND     CLOUDY    61  55  82 E6        30.06F
LIBERAL        CLOUDY    61  54  77 NE12      30.02S
PRATT          CLOUDY    64  55  72 SE5       30.07S
$$

KSZ066>073-081>083-090>101-050700-
SOUTHEAST KANSAS

CITY           SKY/WX    TMP DP  RH WIND       PRES   REMARKS
CHANUTE        MOCLDY    64  59  83 SE7       30.10R
6HR MIN TEMP:  63; 6HR MAX TEMP:  78;

COFFEYVILLE    PTCLDY    63  55  75 S6        30.09S
6HR MIN TEMP:  62; 6HR MAX TEMP:  79;

HUTCHINSON     CLOUDY    64  57  78 NE9       30.08R
6HR MIN TEMP:  64; 6HR MAX TEMP:  80;

MEDICINE LODGE   N/A     65  57  75 SE6       30.04R
NEWTON         CLOUDY    63  54  72 NE12      30.11R
PARSONS        PTCLDY    66  57  72 SE5       30.11R
6HR MIN TEMP:  62; 6HR MAX TEMP:  79;

WICHITA INTL   MOCLDY    67  56  67 SE7       30.06R
6HR MIN TEMP:  67; 6HR MAX TEMP:  80;

WICHITA JABRA  MOCLDY    64  56  75 SE5       30.08R
6HR MIN TEMP:  64; 6HR MAX TEMP:  80;

WICHITA MCCONL MOCLDY    66  57  72 SE8       30.07R
WINFIELD       PTCLDY    63  57  81 SE6       30.08R
6HR MIN TEMP:  63; 6HR MAX TEMP:  78;

$$

KSZ007>012-019>026-033>040-048>060-102>105-050700-
NORTHEAST KANSAS

CITY           SKY/WX    TMP DP  RH WIND       PRES   REMARKS
CONCORDIA      RAIN      61  59  93 CALM      30.08R FOG
6HR MIN TEMP:  61; 6HR MAX TEMP:  67; 6HR PCP:  0.30;

EMPORIA        CLOUDY    61  57  87 E8        30.09F
6HR MIN TEMP:  61; 6HR MAX TEMP:  79;

LAWRENCE       CLOUDY    63  61  93 SE3       30.10F
6HR MIN TEMP:  62; 6HR MAX TEMP:  67; 6HR PCP:  0.37;

MANHATTAN      LGT RAIN  60  60 100 CALM      30.10F
6HR MIN TEMP:  60; 6HR MAX TEMP:  66; 6HR PCP:  1.25;

MARYSVILLE     LGT RAIN  61  59  94 S9        30.09R
OLATHE IND     CLOUDY    62  61  96 N3        30.12S
6HR MIN TEMP:  62; 6HR MAX TEMP:  78; 6HR PCP:  0.07;

OLATHE EXE     CLOUDY    63  62  97 NW5       30.11R
6HR MIN TEMP:  63; 6HR MAX TEMP:  77; 6HR PCP:  0.08;

SALINA         CLOUDY    63  61  93 E8        30.08R
6HR MIN TEMP:  62; 6HR MAX TEMP:  69; 6HR PCP:  1.72;

TOPEKA BILLARD CLOUDY    62  60  93 SE3       30.10S
6HR MIN TEMP:  62; 6HR MAX TEMP:  65; 6HR PCP:  0.24;

TOPEKA FORBES  CLOUDY    62  60  93 SE5       30.09F
6HR MIN TEMP:  62; 6HR MAX TEMP:  69; 6HR PCP:  0.25;

$$



USA.gov is the U.S. government's official web portal to all federal, state and local government web resources and services.